Location: Corte Bragagnani
(45.3000°N, 11.1000°E)
Time: 08:34:43
(UTC+00:00)

APEX - Pass Details

Date: 09 April 2020
Orbit: 331 x 1113 km, 69.9° (Epoch: 01 June)

Event Time Altitude Azimuth Distance (km) Brightness Sun altitude
Rises 18:32:41 0° 332° (NNW) 3,806 8.4 -7.3°
Reaches altitude 10° 18:35:32 10° 334° (NNW) 2,764 7.6 -7.8°
Maximum altitude 18:42:00 78° 60° (ENE) 884 4.2 -8.9°
Drops below altitude 10° 18:47:12 10° 148° (SSE) 2,232 5.9 -9.7°
Enters shadow 18:47:54 - 149° (SSE) 2,496 6.2 -9.8°
